Home > Weather > Port St. Lucie > Past weeks

Flag for USA Past Weather in Port St. Lucie, Florida, USA — Yesterday and Last 2 Weeks

Now
73 °F

Passing clouds.


Feels Like: 72 °F
Forecast: 69 / 88 °F
Wind: 3 mph from North

Location: Witham Field Airport

Current Time: May 31, 2016 at 8:08:18 AM

Latest Report: May 31, 2016 at 6:50 AM


Visibility: 10 mi

Pressure: 29.95 "Hg

Humidity: 89%

Dew Point: 70 °F

Location of Port St. LucieLocation

Past Weather in Port St. Lucie — Graph

°F

Port St. Lucie Temperature Yesterday

Maximum temperature yesterday: 88 °F (at 11:47 AM)
Minimum temperature yesterday: 73 °F (at 4:55 AM)
Average temperature yesterday: 79 °F

High & Low Weather Summary for the Past Weeks

 TemperatureHumidityPressure
High91 °F (May 18, 1:50 PM)100% (May 18, 2:15 AM)30.23 "Hg (May 18, 2:15 AM)
Low72 °F (May 18, 12:55 AM)41% (May 22, 6:47 PM)29.84 "Hg (May 22, 5:47 PM)
Average79 °F75%30.03 "Hg
* Reported May 16 6:15 AM — May 31 6:35 AM, Port St. Lucie, Weather by CustomWeather, © 2016

Note: Actual official high and low records may vary slightly from our data, if they occured in-between our weather recording intervals... More about our weather records

Advertising

Port St. Lucie Weather History for the Previous 24 Hours

Scroll right to see more
 ConditionsComfort  
Time TempWeatherWind HumidityBarometerVisibility
6:35 AM
Tue, May 31
73 °FClear.No wind89%29.95 "Hg10 mi
6:15 AM73 °FClear.No wind89%29.95 "Hg10 mi
5:55 AM73 °FClear.No wind89%29.94 "Hg10 mi
5:35 AM73 °FClear.No wind89%29.93 "Hg10 mi
5:15 AM73 °FClear.No wind89%29.94 "Hg10 mi
4:55 AM75 °FClear.No wind83%29.94 "Hg10 mi
4:35 AM75 °FClear.No wind83%29.94 "Hg10 mi
4:15 AM73 °FClear.3 mph89%29.94 "Hg10 mi
3:55 AM77 °FClear.No wind79%29.94 "Hg10 mi
3:35 AM75 °FClear.6 mph83%29.94 "Hg10 mi
3:15 AM75 °FClear.No wind83%29.95 "Hg10 mi
2:55 AM75 °FClear.No wind83%29.95 "Hg10 mi
2:15 AM75 °FClear.3 mph83%29.96 "Hg10 mi
1:55 AM77 °FClear.No wind79%29.97 "Hg10 mi
1:35 AM77 °FClear.No wind79%29.97 "Hg10 mi
12:55 AM77 °FClear.3 mph79%29.99 "Hg10 mi
12:35 AM77 °FClear.No wind79%29.99 "Hg10 mi
12:15 AM77 °FClear.No wind79%30.00 "Hg10 mi
11:55 PM
Mon, May 30
77 °FClear.No wind79%30.01 "Hg10 mi
11:15 PM77 °FClear.3 mph83%30.01 "Hg10 mi
10:55 PM79 °FClear.6 mph79%30.01 "Hg10 mi
10:35 PM79 °FClear.5 mph79%30.01 "Hg10 mi
10:15 PM81 °FClear.8 mph74%30.01 "Hg10 mi
9:47 PM81 °FClear.5 mph74%29.99 "Hg7 mi
8:47 PM82 °FSunny.3 mph70%29.98 "Hg7 mi
6:47 PM84 °FSunny.9 mph66%29.96 "Hg7 mi
5:47 PM86 °FSunny.12 mph62%29.95 "Hg7 mi
4:47 PM84 °FPassing clouds.12 mph66%29.95 "Hg7 mi
3:47 PM86 °FScattered clouds.9 mph62%29.97 "Hg7 mi
12:47 PM88 °FThundershowers. Partly sunny.7 mph62%30.02 "Hg7 mi
11:47 AM88 °FScattered showers. Partly sunny.9 mph62%30.03 "Hg7 mi
10:47 AM86 °FScattered clouds.9 mph62%30.04 "Hg7 mi
9:47 AM84 °FPassing clouds.5 mph66%30.04 "Hg7 mi
8:47 AM82 °FSunny.5 mph74%30.03 "Hg7 mi
Weather by CustomWeather, © 2016

See weather overviewHow to use our weather pages